Location: Unspecified
(0.0000°N, 0.0000°E)
Time: 13:45:36
(UTC+00:00)

Vanguard 1 - Pass Details

Date: 21 November 2019
Orbit: 652 x 3831 km, 34.3° (Epoch: 08 December)

Event Time Altitude Azimuth Distance (km) Brightness Sun altitude
Rises 05:32:59 0° 232° (SW) 7,932 14.4 -3.0°
Reaches altitude 10° 05:38:25 10° 231° (SW) 6,939 14.1 -1.7°
Maximum altitude 06:01:52 86° 142° (SE) 3,145 12.8 3.8°
Drops below altitude 10° 06:16:27 10° 55° (NE) 4,651 14.1 7.2°
Sets 06:19:17 0° 54° (NE) 5,323 14.3 7.9°
